www.pogodaiklimat.ru

Погода и климат >> Архив погоды >> Аргентина >> Пилар


ПОГОДА в Пиларе

  • Прогноз погоды в Пиларе
  • Монитор погоды в Пиларе

АРХИВ ПОГОДЫ в Пиларе

Время (UTC), дата Ветер
(напр.,м/с)
 
Видим.   Явления Облачность Т
(С)
Тd
(С)
f
(%)
Тe
(С)
Тes
(С)
Комфортность P
(гПа)
Po
(гПа)
Тmin
(С)
Tmax
(С)
R
(мм)
R24
(мм)
S
(см)
03 20.05 штиль 0 10 км 5/0
[Cs]
+9.3 +6.1 80 +9 +9 1018.3 978.2
06 20.05 штиль 0 10 км 10/10 300 м
[St]
+9.5 +6.7 83 +9 +9 1016.7 976.9
09 20.05 штиль 0 10 км 10/10 300 м
[St]
+10.1 +7.4 83 +9 +9 1015.5 975.7
12 20.05 ЮЗ 1 10 км 10/10 240 м
[St]
+10.9 +8.9 87 +11 +11 1016.6 976.2 +8.0 +10.9
15 20.05 штиль 0 10 км 10/10 360 м
[Sc]
+14.0 +12.0 88 +14 +14 1016.8 976.6
18 20.05 ЮВ 2 10 км 10/10 360 м
[Sc]
+16.9 +13.4 80 +17 +17 1013.9 974.0
21 20.05 Ю 3 10 км 10/10 360 м
[Sc]
+14.0 +12.7 92 +13 +13 1015.1 975.0
00 21.05 Ю 5 1200 м слаб. морось 10/10 240 м
[St]
+12.4 +11.8 96 +10 +10 1018.0 977.8 +10.9 +17.3 0.0
03 21.05 Ю 6 8000 м слаб. морось 10/10 240 м
[St]
+9.7 +8.9 95 +6 +6 1020.1 980.0
06 21.05 Ю 4 10 км {морось} 10/10 240 м
[St]
+8.0 +6.9 93 +5 +5 1021.9 981.6 0.0
09 21.05 Ю 4 10 км 10/10 240 м
[St]
+8.2 +6.7 90 +5 +5 1022.0 981.4
12 21.05 Ю 7 10 км 10/10 240 м
[St]
+8.9 +7.4 90 +5 +5 1024.1 983.4 +7.1 +12.4 0.0
15 21.05 Ю 6 6000 м слаб. морось 10/10 300 м
[St]
+9.6 +8.2 91 +6 +6 1025.4 984.6
18 21.05 Ю 6 10 км в посл. час морось 10/10 360 м
[Sc]
+10.7 +8.9 89 +7 +7 1024.0 983.2 0.0
21 21.05 Ю 6 8000 м слаб. морось 10/10 240 м
[St]
+10.4 +8.4 87 +7 +7 1024.4 983.6
00 22.05 Ю 4 10 км {морось} 10/10 210 м
[St]
+9.3 +8.3 93 +6 +6 1026.2 985.3 +8.0 +11.2 0.0
03 22.05 Ю 3 5000 м слаб. морось 10/10 210 м
[St]
+9.1 +8.9 99 +6 +6 1027.4 986.5
06 22.05 Ю 3 5000 м слаб. морось 10/10 210 м
[St]
+8.6 +8.2 97 +6 +6 1026.0 985.2 0.0
09 22.05 Ю 3 8000 м слаб. морось 10/10 240 м
[St]
+8.2 +7.4 95 +6 +6 1025.9 985.0
12 22.05 Ю 3 10 км {морось} 10/5 540 м
[Sc Ac As]
+8.1 +6.6 90 +5 +5 1027.5 986.5 +7.3 +9.3 2
15 22.05 Ю 5 10 км 10/6 600 м
[Cu Sc Ac As]
+10.0 +6.2 77 +7 +7 1027.5 986.6
18 22.05 Ю 4 10 км 9/4 600 м
[Sc Ac und]
+11.5 +5.8 68 +10 +11 1025.0 984.2
21 22.05 Ю 2 10 км 3/0
[Ac und]
+11.2 +4.9 65 +10 +10 1024.5 983.7
00 23.05 Ю 1 10 км 4/0
[Ac und]
+8.1 +4.7 79 +8 +8 1026.3 985.2 +7.8 +12.6
03 23.05 Ю 1 10 км 6/0
[Ac und]
+6.9 +5.6 91 +7 +7 1026.7 985.7
06 23.05 З 1 10 км 6/0
[Ac und]
+5.1 +4.2 94 +5 +5 1026.0 985.0
12 23.05 штиль 0 10 км ясно +4.7 +3.7 93 +4 +4 1025.2 983.8 +2.0 +8.1
15 23.05 ЮЗ 1 10 км ясно +14.1 +7.2 63 +15 +24 1024.6 983.8
18 23.05 С 2 10 км ясно +17.0 +7.6 54 +17 +23 1021.4 980.9
21 23.05 С 1 10 км ясно +16.7 +6.9 52 +18 +18 1020.4 979.8
00 24.05 С 2 10 км ясно +10.5 +5.8 73 +9 +9 1021.1 980.2 +4.7 +18.6
03 24.05 штиль 0 10 км ясно +7.1 +5.5 90 +6 +6 1021.0 980.5
06 24.05 штиль 0 10 км ясно +4.9 +4.2 95 +4 +4 1019.5 979.0
09 24.05 штиль 0 6000 м дымка ясно +3.7 +3.0 95 +3 +3 1018.2 977.8
12 24.05 штиль 0 8000 м дымка ясно +5.2 +3.8 91 +4 +5 1019.3 978.5 +2.4 +10.5
15 24.05 С 4 10 км 3/0
[Ci]
+17.1 +7.2 52 +17 +22 1019.1 978.9
18 24.05 С 5 10 км 8/0
[Ci sp]
+20.4 +5.1 37 +21 +24 комфорт 1014.7 974.6
21 24.05 С 3 10 км 6/0
[Ci sp]
+18.9 +7.2 47 +20 +20 1014.0 973.8
00 25.05 С 2 10 км 6/0
[Ci sp]
+12.8 +9.3 79 +12 +12 1015.1 974.6 +5.2 +20.9
03 25.05 С 3 10 км 3/0
[Ci sp]
+9.5 +6.3 80 +7 +7 1014.3 974.4
06 25.05 С 3 10 км 3/0
[Ci sp]
+8.4 +3.8 73 +6 +6 1012.6 973.0
09 25.05 С 3 10 км 5/0
[Ci sp]
+7.2 +3.7 78 +4 +4 1012.3 972.5
12 25.05 С 3 10 км 9/0
[Cs]
+8.6 +4.8 77 +6 +6 1013.6 973.2 +5.6 +12.8
15 25.05 С 6 10 км 8/0
[Ci sp]
+16.5 +8.3 58 +16 +18 1012.2 972.4
18 25.05 С 7 10 км 9/0
[Cs]
+19.7 +9.2 51 +20 +22 1009.5 969.8
21 25.05 С 4 10 км 9/0
[Cs]
+15.8 +10.4 70 +15 +15 1009.4 969.4
00 26.05 С 5 10 км 9/0
[Ac As Cs]
+12.8 +9.9 83 +11 +11 1010.5 970.4 +8.6 +20.1
03 26.05 С 4 10 км 9/0
[Ac As]
+11.8 +9.4 85 +10 +10 1009.5 969.8
06 26.05 С 5 10 км 9/0
[Ac As]
+13.0 +9.5 79 +11 +11 1007.7 968.5
09 26.05 С 1 10 км 9/0
[Ac As Ci sp]
+10.0 +9.2 95 +10 +10 1008.5 968.8
12 26.05 Ю 2 900 м туман 10/10 240 м
[St]
+9.3 +9.1 99 +7 +7 1011.7 971.6 +7.5 +13.5
15 26.05 Ю 4 10 км {туман} 8/0
[Cs]
+14.8 +10.5 75 +14 +18 1012.1 972.2
18 26.05 Ю 4 10 км {туман} 6/0
[Cs]
+18.2 +9.8 58 +18 +22 1010.4 971.0
21 26.05 штиль 0 10 км 1/0
[Ci]
+17.8 +9.7 59 +18 +18 1011.8 972.2
00 27.05 штиль 0 10 км 6/6 600 м
[Sc]
+13.3 +10.0 80 +13 +13 1013.6 973.4 +8.9 +19.5

 

Местоположение метеостанции Пилар (Аргентина): широта -31.66 долгота -63.88 высота над уровнем моря 338 м.

В архиве по умолчанию представлена погода в Пиларе за последнюю неделю. Архивные данные за месяц целиком и за предыдущие месяцы, начиная с января 2011 года, Вы можете получить, выбрав интересующий диапазон дат из раскрывающегося списка и нажав кнопку "Ввод!".


*Определитесь, кто Вы:
робот инопланетянин человек

Внимание! Время в таблицах - всемирное. Для получения местного времени необходимо прибавить поправку, которая равна -3 ч.

Смотрите также архив погоды в соседних городах и на ближайших метеорологических станциях:

Погода в Кордове (Аргентина) (50 км)
Погода в Вилла Долорес (Аргентина) (122 км)
Погода в Рио-Куарто (Аргентина) (163 км)
Погода в Вилла де Мария дель Рио Секо (Аргентина) (197 км)
Погода в Маркос Хуарес (Аргентина) (200 км)
Погода в Вилья Рейнольдс (Аргентина) (270 км)
Погода в Сересе (Аргентина) (271 км)
Погода в Чамикале (Аргентина) (271 км)
Погода в Лабоулайе (Аргентина) (279 км)
Погода в Санта-Фе (Аргентина) (291 км)

Пояснения к столбцам:

Ветер - указаны скорость ветра в м/с - средняя за 10 мин, порывы в срок и между сроками (в фигурных скобках) и направление, откуда дует ветер: С - северный, СВ - северо-восточный, В - восточный, ЮВ - юго-восточный, Ю - южный, ЮЗ - юго-западный, З - западный, СЗ - северо-западный.
Видимость - горизонтальная дальность видимости в метрах или километрах. При видимости от 1 до 10 км при отсутствии осадков обычно наблюдается дымка, при ухудшении видимости до 1 км и менее - туман. В сухую погоду видимость может ухудшаться дымом, пылью или мглою.
Явления - указаны атмосферные явления, наблюдавшиеся в срок или в последний час перед сроком; фигурными скобками обозначены явления, наблюдавшиеся между сроками (за 1-3 часа до срока); квадратными скобками обозначены град или гололедные отложения с указанием их диаметра в мм.
Облачность - указаны через наклонную черту общая и нижняя облачность в баллах и высота нижней границы облаков в метрах; квадратными скобками обозначены формы облаков: Ci - перистые, Cs - перисто-слоистые, Cc - перисто-кучевые, Ac - высококучевые, As - высокослоистые, Sc - слоисто-кучевые, Ns - слоисто-дождевые, Cu - кучевые, Cb - кучево-дождевые. Подробнее классификацию облаков см. в Атласе облаков (PDF).
T - Температура воздуха - температура, измеренная на высоте 2 м над землей.
Td - Температура точки росы - температура, при понижении до которой содержащийся в воздухе водяной пар достигнет насыщения.
f - Относительная влажность воздуха - влажноcть воздуха, измеренная на высоте 2 м над землей.
Te - Эффективная температура - температура, которую ощущает одетый по сезону человек в тени. Характеристика душности погоды. При расчете учитывается влияние влажности воздуха и скорости ветра на теплоощущения человека.
Tes - Эффективная температура на солнце - температура, которую ощущает человек, с поправкой на солнечный нагрев. Характеристика знойности погоды. Зависит от высоты солнца над горизонтом, облачности и скорости ветра. Ночью, в пасмурную погоду, а также при ветре 12 м/с и более поправка равна нулю.
P - Атмосферное давление - приведенное к уровню моря атмосферное давление.
Po - Атмосферное давление - измеренное на уровне метеостанции атмосферное давление.
Tmin - Минимальная температура - минимум температуры воздуха на высоте 2 м над землей.
Tmax - Максимальная температура - максимум температуры воздуха на высоте 2 м над землей.
R - Количество осадков - Количество выпавших осадков за период времени, мм. При наведении курсора мыши на число - период времени, за который выпало указанное количество осадков.
R24 - Количество осадков - Количество выпавших осадков за 24 часа, мм.
S - Снежный покров - Высота снежного покрова, см. При наведении курсора мыши на число - состояние снежного покрова и степень покрытия местности в баллах.